Regional Weather Roundup
Issued by NWS

Home | Current Version | Previous Version | Graphics & Text | Print | Product List | Glossary On
Versions: 1 2 3 4 5 6 7 8 9 10 11 12 13 14 15 16 17 18 19 20 21 22 23 24 25 26 27 28 29 30 31 32 33 34 35 36 37 38 39 40 41 42 43 44 45 46 47 48 49 50
424
ASUS44 KJAN 180310
RWRMS

MISSISSIPPI HOURLY WEATHER ROUNDUP
NATIONAL WEATHER SERVICE JACKSON MS
1000 PM CDT WED SEP 17 2014

NOTE: "FAIR: INDICATES FEW OR NO CLOUDS BELOW 12,000 FEET WITH NO
SIGNIFICANT WEATHER AND/OR OBSTRUCTIONS TO VISIBILITY.

MSZ001>002-007>008-010>013-018>021-025>028-034>036-180400-
NORTHWEST MISSISSIPPI

CITY           SKY/WX    TMP DP  RH WIND       PRES   REMARKS
CLARKSDALE       N/A     72  70  94 CALM      29.93R
CLEVELAND      FAIR      75  71  87 NE3       29.92R
GREENWOOD      CLEAR     73  68  84 N5        29.93R
GREENVILLE     MOCLDY    74  68  81 E5        29.90F
GRENADA        FAIR      70  68  94 CALM      29.94R
OLIVE BRANCH   CLEAR     66  66 100 NE7       29.96R
OXFORD         FAIR      68  66  94 E5        29.96R
TUNICA         CLOUDY    68  64  88 N5        29.94R
$$

MSZ003>006-009-014>017-022>024-029>033-037>039-180400-
NORTHEAST MISSISSIPPI

CITY           SKY/WX    TMP DP  RH WIND       PRES   REMARKS
COLUMBUS AFB   PTCLDY    71  65  83 NE6       29.95R
CORINTH          N/A     66  63  88 CALM      29.97R
GOLDN TRIANGLE CLEAR     72  63  73 NE6       29.96R
STARKVILLE     FAIR      68  64  88 CALM      29.95R
TUPELO         CLEAR     70  65  84 NE6       29.95S
$$

MSZ040-058-180400-
CENTRAL MISSISSIPPI

CITY           SKY/WX    TMP DP  RH WIND       PRES   REMARKS
JACKSON INTL   CLEAR     73  69  87 CALM      29.92S
JACKSON HAWKNS CLEAR     78  69  73 CALM      29.93S
MERIDIAN KEY   CLEAR     71  68  90 SW5       29.94R
MERIDIAN NAS   PTCLDY    72  67  84 CALM      29.94S
RAYMOND        FAIR      73  68  83 CALM      29.92S
VICKSBURG      PTCLDY    72  70  93 CALM      29.92R
$$

MSZ059>079-180400-
SOUTH MISSISSIPPI

CITY           SKY/WX    TMP DP  RH WIND       PRES   REMARKS
BROOKHAVEN     FAIR      73  73 100 CALM      29.96R
COLUMBIA       FAIR      73  72  94 CALM      29.92S
HATTIESBURG    MOCLDY    77  73  87 SE5       29.93S
MCCOMB         PTCLDY    76  73  91 CALM      29.95R
NATCHEZ        CLOUDY    75  72  88 CALM      29.94S
PINE BELT      CLEAR     73  68  83 CALM      29.95R
$$

MSZ080>082-180400-
COASTAL MISSISSIPPI

CITY           SKY/WX    TMP DP  RH WIND       PRES   REMARKS
BILOXI         CLEAR     79  74  84 CALM      29.93R
PASCAGOULA     CLEAR     74  72  93 CALM      29.92S
GULFPORT       CLEAR     77  73  87 CALM      29.92R
$$



USA.gov is the U.S. government's official web portal to all federal, state and local government web resources and services.